Location: East Irvine
(33.6759°N, 117.7598°W)
Time: 22:29:20
(UTC+00:00)

SJ-7 - Pass Details

Date: 15 November 2025
Orbit: 500 x 522 km, 97.7° (Epoch: 12 December)

Event Time Altitude Azimuth Distance (km) Brightness Sun altitude
Rises 02:23:58 0° 168° (SSE) 2,587 7.7 -20.0°
Reaches altitude 10° 02:26:02 10° 169° (S) 1,704 6.8 -20.4°
Maximum altitude 02:29:42 84° 258° (WSW) 508 4.1 -21.1°
Drops below altitude 10° 02:33:23 10° 347° (NNW) 1,710 6.9 -21.9°
Sets 02:35:28 0° 348° (NNW) 2,597 7.8 -22.3°
